Погода в Зигиншоре

Сенегал     12°33′37″N   16°14′58″W
темп.,
°C
ветер,
м/с
пор.,
м/с
влажн.,
%
обл.,
%
осадки,
мм/ч
давл.,
гПа
погр.,
м
9 августа, вт
вт900:00+25зюз259053 0.2 1013216
03:00+25зюз249299 0.1 1012113
06:00+24з1191100 0.1 101313
09:00+26зсз2588100 0.0 1013374
12:00+28зсз237996 0.1 1014760
15:00+30сз447057 0.3 10121133
18:00+28зсз467856 0.5 1012540
21:00+26зсз2789100 0.1 1013280
10 августа, ср
ср1000:00+25зсз269193 0.1 1013201
03:00+25з269457 0.0 1012199
06:00+25зсз259587 0.1 1012162
09:00+27зсз358354 0.3 1013544
12:00+30зсз346897 0.8 10131139
15:00+30з3471100 3.6 10111003
18:00+28з3684100 7.7 1010546
21:00+26з2591100 2.1 1012159
11 августа, чт
чт1100:00+26зюз2694100 1.3 1012238
03:00+25з2693100 3.3 1011176
06:00+24з119521 6.3 101142
09:00+26з248699 1.6 1012242
12:00+29з237569 4.4 1012900
15:00+27юз2383100 5.3 1011208
18:00+25зюз4790100 10.3 1010229
21:00+24зюз2694100 3.9 1012197
12 августа, пт
пт1200:00+24зюз2693100 8.4 1013171
03:00+24ююз239699 3.2 1011104
06:00+24ююв2294100 8.9 101160
09:00+25з128993 3.2 1012200
12:00+25вюв3492100 8.8 1013285
15:00+23з5999100 21.2 1012457
18:00+23юз2694100 24.1 1012401
21:00+23зюз1196100 0.5 101431
13 августа, сб
сб1300:00+23ююз1293100 0.6 101426
03:00+23ююз2294100 0.1 101253
06:00+23юз2692100 0.1 1012155
09:00+25юз278899 0.1 1013472
12:00+29юз466999 0.4 10141240
15:00+30зюз4558100 0.1 10121474
18:00+27юз3676100 0.1 1012506
21:00+25ююз268691 0.0 1014223